User: anonymous   Login
Location: Deep South Regional Star Gaze
(30.9929°N, 90.9586°W)
Time: 01:50:52
(UTC-06:00)
Language:

H-2A R/B - Orbit

View from above orbital plane
View from above orbital plane
View from above satellite
View from above satellite

Ground track
Ground track

The orbit data is extracted from the following two-line orbital elements,

1 26899U 01038B   14354.85222718  .00002106  00000-0  60657-3 0   995
2 26899 028.1102 072.4252 7149642 309.5327 340.8135 02.44210117114084
Epoch (UTC): 20 December 2014 20:27:12
Eccentricity: 0.7149642
inclination: 28.1102°
perigee height: 261 km
apogee height: 33568 km
right ascension of ascending node: 72.4252°
argument of perigee: 309.5327°
revolutions per day: 2.44210117
mean anomaly at epoch: 340.8135°
orbit number at epoch: 11408

The dashed part of the orbit path shows where the satellite is in the earth's shadow,  

DLR